Regional Weather Roundup
Issued by NWS Huntsville, AL

Home | Current Version | Previous Version | Text Only | Print | Product List | Glossary On
Versions: 1 2 3 4 5 6 7 8 9 10 11 12 13 14 15 16 17 18 19 20 21 22 23 24 25 26 27 28 29 30 31 32 33 34 35 36 37 38 39 40 41 42 43 44 45 46 47 48 49 50
000
ASUS44 KHUN 070510
RWRHUN

WEATHER ROUNDUP FOR THE TENNESSEE VALLEY
NATIONAL WEATHER SERVICE HUNTSVILLE AL
1200 AM CDT THU MAY 07 2015

ALZ001>004-070600-
NORTHWEST ALABAMA

CITY           SKY/WX    TMP DP  RH WIND       PRES   REMARKS
BANKHEAD NF      N/A     60  53  77 CALM        N/A
SHOALS AIRPORT CLEAR     59  53  80 CALM      30.11S
SHOALS TVA RES   N/A     61 N/A N/A MISG        N/A
$$

ALZ005>007-016-070600-
NORTH CENTRAL ALABAMA

CITY           SKY/WX    TMP DP  RH WIND       PRES   REMARKS
CULLMAN AG STN   N/A     55 N/A N/A CALM        N/A
DECATUR AP     CLEAR     58  54  86 CALM      30.11S
HUNTSVILLE AP  CLEAR     65  55  70 E5        30.11S
HUN NWS/UAH      N/A     65  54  68 CALM        N/A
MERIDIANVILLE  CLEAR     59  52  77 CALM      30.12S
REDSTONE ARSN  CLEAR     62  55  77 N1        30.11S
VINEMONT AP    FAIR      56  54  94 CALM      30.14R
$$

ALZ008>010-070600-
NORTHEAST ALABAMA

CITY           SKY/WX    TMP DP  RH WIND       PRES   REMARKS
ALBERTVILLE    CLEAR     61  59  94 CALM      30.12S
FORT PAYNE     CLEAR     55  50  82 CALM      30.13S
SCOTTSBORO HCN   N/A     57 N/A N/A MISG        N/A
VALLEY HEAD      N/A     55 N/A N/A MISG        N/A
$$

TNZ076-096-097-070600-
SOUTHEASTERN MIDDLE TENNESSEE

CITY           SKY/WX    TMP DP  RH WIND       PRES   REMARKS
TULLAHOMA      CLEAR     57  52  82 CALM      30.14F
WINCHESTER     CLEAR     59  54  82 CALM      30.13F
$$

...SURROUNDING SITES...

CITY           SKY/WX    TMP DP  RH WIND       PRES   REMARKS
ATLANTA        PTCLDY    68  53  58 CALM      30.14S
ANNISTON       CLEAR     60  57  89 CALM      30.12F
BIRMINGHAM     CLEAR     62  56  80 CALM      30.12S
CHATTANOOGA    CLEAR     63  57  81 CALM      30.13S
DALTON         CLEAR     59  59 100 CALM      30.13F
GADSDEN        CLEAR    N/A N/A N/A CALM      30.10F
GOLDEN TRNGL   CLEAR     70  57  64 SE5       30.07S
HALEYVILLE       N/A     57  57 100 MISG      30.14S
JACKSON TN     CLEAR     64  52  64 S3        30.07S
LEWISBURG      FAIR      55  51  86 CALM      30.11S
MEMPHIS        CLEAR     72  53  51 S6        30.05S
NASHVILLE      CLEAR     66  58  75 CALM      30.11S
OXFORD MS      FAIR      66  55  68 SE5       30.08F
ROME           CLEAR     59  55  87 CALM      30.12F
SAVANNAH       CLEAR     55  32  41 CALM      30.09S
TUPELO         CLEAR     68  57  68 CALM      30.08R
TUSCALOOSA     CLEAR     62  58  86 CALM      30.09R
$$

...GULF COAST WEATHER...

CITY           SKY/WX    TMP DP  RH WIND       PRES   REMARKS
GULFPORT       CLEAR     70  67  90 CALM      30.05S
PASCAGOULA     CLEAR     61  61 100 N3        30.06S FOG
MOBILE         CLEAR     63  63 100 CALM      30.07S
GULF SHORES    CLEAR     63  63 100 CALM      30.06S FOG
PENSACOLA      CLEAR     64  63  96 CALM      30.05F
DESTIN         CLEAR     70  67  90 CALM      30.07F
PANAMA CITY    PTCLDY    67  65  94 N2        30.07S
APPALACHICOLA  MOCLDY    72  66  81 CALM      30.07S
$$




USA.gov is the U.S. government's official web portal to all federal, state and local government web resources and services.